STARLINK-32536, 61925

Orbit data source: Space-Track

STARLINK-32536, 61925 is a payload satellite owned by SpaceX/Seattle (US) in LEO that was launched on Mon, 11 Nov 2024 UTC via an FALCON 9 launch vehicle from the Air Force Eastern Test Range (AFETR). Payload-class satellites include a variety of spacecraft equipped with specific instruments for various scientific and technological missions. These include communications satellites like Starlink; space stations such as the ISS; scientific satellites like the Hubble; Earth observation satellites from companies like Planet Labs, Umbra, and HawkEye 360; GPS; miniature CubeSats for education and research; and military/defense satellites.

Loading next visibility...
Identifier
61925, 2024-207P
Orbit
LEO
Country
Flag of USUS
Related business
Manufacturer
SpaceX/Seattle
Mission
Operational Commercial Communications
Bus & Motor
STARLINK V2M, Unknown motor
Mass
730 kg wet, ~700 kg dry
Launch date (UTC)
2024-11-11 (1 year ago)
Launch vehicle
FALCON 9
Launch site
Air Force Eastern Test Range (AFETR)
Object type
Payload
Rocket body
Debris
Shape & HBR
Box + 2 Pan, 17.7 m
Radar Cross Section
33.884 m², Large (>1 m²)

Expand to show TLE details & history
Last TLE update: 6 hours ago

TLE from 6 hours ago
0 STARLINK-32536
1 61925U 24207P   26073.51142413  .00031306  00000-0  11413-2 0  9992
2 61925  42.9981 258.4707 0001524 247.7658 112.3032 15.27609614 75412
Epoch: 2026-03-14T12:16Z
TLE epoch observation values (Epoch: 2026-03-14T12:16:27.044Z)
Latitude
-0.00004°
Longitude
-97.77357°
Altitude
483.133 km
Speed
7.625 km/s
True Right ascension
17h 13m 52s
True Declination
0° 00' 00"
Sunlit
Object was in daylight at epoch
Visualization orbit readout
Latitude
Unknown
Longitude
Unknown
Altitude
Unknown
Speed
Unknown
Apparent Right ascension
Unknown
Apparent Declination
Unknown
Sunlit
N/A
Visualization observer readout
Local Sidereal Time
22:20:45
Azimuth
Unknown
Elevation
Unknown
Doppler factor
Unknown
Orbital elements
Apogee altitude
485.952 km
Perigee altitude
483.86 km
Semi-major axis
6,863.043 km
Eccentricity
0.00015
Inclination
42.9981°
RAAN
258.4707°
Arg. of periapsis
247.7658°
True anomaly
112.31936°
Mean anomaly
112.3032°
Eccentric anomaly
112.31128°
Mean motion
3.8174 °/min
Orbital period
94.3 mins
BSTAR
0.0011413
Loading maneuver chart data...
Computing Atmospheric mass density...
Loading historical data...
Loading historical data...
Loading historical data...
Loading historical data...
Loading historical data...
Loading historical data...
Loading historical data...

Documentation

Showing up to 5 results
|